Location: Limoges
(45.8500°N, 1.2500°E)
Time: 05:07:12
(UTC+01:00)

ISS - Visible Passes

Search period start: 03 December 2020 00:00
Search period end: 13 December 2020 00:00
Orbit: 418 x 420 km, 51.6° (Epoch: 03 December)

Date Brightness Start Highest point End Pass type
(mag) Time Alt. Az. Time Alt. Az. Time Alt. Az.
03 Dec -3.4 19:04:48 10° WNW 19:07:50 52° N 19:07:50 52° N visible
04 Dec -3.2 18:17:15 10° NW 18:20:28 41° NNE 18:22:25 20° E visible
04 Dec -1.2 19:54:05 10° WNW 19:55:24 21° W 19:55:24 21° W visible
05 Dec -3.7 19:06:26 10° WNW 19:09:48 73° SSW 19:10:07 65° SSE visible
06 Dec -3.8 18:18:50 10° WNW 18:22:13 76° NNE 18:25:01 14° ESE visible
06 Dec -1.0 19:56:15 10° W 19:58:01 18° WSW 19:58:01 18° WSW visible
07 Dec -1.9 19:08:16 10° WNW 19:11:14 29° SW 19:13:10 17° S visible
08 Dec -2.7 18:20:29 10° WNW 18:23:44 46° SW 18:26:58 10° SE visible
09 Dec -0.5 19:11:09 10° WSW 19:12:26 12° SW 19:13:43 10° SSW visible
10 Dec -0.8 18:22:34 10° W 18:25:01 19° SW 18:27:26 10° S visible
